Regional Weather Roundup
Issued by NWS

Home | Current Version | Previous Version | Text Only | Print | Product List | Glossary Off
Versions: 1 2 3 4 5 6 7 8 9 10 11 12 13 14 15 16 17 18 19 20 21 22 23 24 25 26 27 28 29 30 31 32 33 34 35 36 37 38 39 40 41 42 43 44 45 46 47 48 49 50

150
ASUS45 KTFX 282110
RWRMT
MONTANA REGIONAL WEATHER ROUNDUP
NATIONAL WEATHER SERVICE GREAT FALLS MT
300 PM MDT FRI APR 28 2017

NOTE: "FAIR" INDICATES FEW OR NO CLOUDS BELOW 12000 FEET WITH NO
SIGNIFICANT WEATHER AND/OR OBSTRUCTIONS TO VISIBILITY.

MTZ001>007-043-282200-
WEST OF THE DIVIDE

CITY           SKY/WX    TMP DP  RH WIND       PRES   REMARKS
KALISPELL      CLOUDY    51  37  58 S6        30.09R
MISSOULA       PTSUNNY   51  32  48 NW6       30.12S
BUTTE          CLOUDY    44  19  36 N9        30.06R
MULLAN PASS    SNOW      33  31  92 VRB6      30.13R VSB 1/4 WCI  28
ANACONDA         N/A     43  19  39 N9        30.07R
DEER LODGE       N/A     45  25  45 NW8G16    30.10R
EUREKA           N/A     52  36  54 W5        30.09R
HAMILTON         N/A     48  27  43 NE5       30.11R
LIBBY            N/A     52  37  58 E6        30.09R
$$

MTZ008-052>055-282200-
SOUTHWEST MONTANA

CITY           SKY/WX    TMP DP  RH WIND       PRES   REMARKS
BOZEMAN        CLOUDY    42  35  76 SE15      30.04R
DILLON         CLOUDY    46  22  38 N16       30.02R
W YELLOWSTONE  CLOUDY    37  23  56 N14G24    29.97R WCI  29
ENNIS          CLOUDY    41  30  65 N15G22    30.07R
THREE FORKS      N/A     50 -49   1 N12       30.03R
$$

MTZ009-010-012-014-046-048-049-054-282200-
EAST SLOPES AND CENTRAL MONTANA

CITY           SKY/WX    TMP DP  RH WIND       PRES   REMARKS
CUT BANK       CLOUDY    43  33  68 VRB6      30.11S
GREAT FALLS    CLOUDY    41  37  86 SW8       30.08R
MALMSTROM AFB  LGT RAIN  43  39  87 SE7       30.09R
HELENA         CLOUDY    51  26  37 W9        30.05R
AUGUSTA        PTSUNNY   42  39  91 N21       30.09R
BOWMANS CRNR   LGT RAIN  39  35  84 N15       30.07R WCI  30
CHOTEAU          N/A     43  34  70 N15       30.13R
FAIRFIELD      PTSUNNY   45  33  63 N16G25    30.09R
POWER          PTSUNNY   46  36  67 N18       30.08R
RAYNESFORD     SNOWSHWR  39  34  82 W8        30.09R
ULM            FLURRIES  40  37  87 N14       30.10R
$$

MTZ011-013-016-021-045-047-050-051-282200-
NORTH CENTRAL MONTANA

CITY           SKY/WX    TMP DP  RH WIND       PRES   REMARKS
HAVRE          MOSUNNY   51  35  54 NW10      30.09R
LEWISTOWN      CLOUDY    44  34  67 E9        30.06R
CHINOOK          N/A     50  37  62 NW12      30.08R
DENTON         PTSUNNY   47  33  56 MISG      30.04R
FORT BENTON      N/A     43  37  81 MISG      30.12R
GEYSER         LGT RAIN  43  35  72 NW13      30.06R
GRASS RANGE      N/A     43  35  72 CALM      30.04R
JUDITH GAP     PTSUNNY   42  32  66 NE12G18   30.05R
STANFORD       PTSUNNY   44  30  58 S5        30.06R
WINIFRED         N/A     48  33  55 SE12      30.06R
$$

MTZ017>020-022>027-061-062-282200-
NORTHEAST MONTANA

CITY           SKY/WX    TMP DP  RH WIND       PRES   REMARKS
GLASGOW        MOSUNNY   58  22  24 W8        30.04R
JORDAN           N/A     54  25  32 N7        30.04R
SIDNEY         SUNNY     56  18  22 SE5       30.07R
WOLF POINT     CLOUDY    59  19  21 VRB7      30.05R
PLENTYWOOD       N/A     54  18  24 W8        30.05S
POPLAR           N/A     55  19  24 E7        30.05S
$$

MTZ028>42-056>058-282200-
SOUTHCENTRAL AND SOUTHEAST MONTANA

CITY           SKY/WX    TMP DP  RH WIND       PRES   REMARKS
BAKER          SUNNY     53  21  28 E9        30.04R
BILLINGS       CLOUDY    41  35  79 SE10      30.07R
LIVINGSTON     LGT RAIN  42  35  76 E17       30.03R
MILES CITY     CLOUDY    52  22  30 CALM      30.05R
BIG TIMBER     PTSUNNY   36  36 100 S8        30.09R WCI  29
LAUREL           N/A     41  26  55 E6        30.05S
ROUNDUP          N/A     50  31  48 N9        29.97R
$$

REGIONAL REPORTS...DAKOTAS

CITY           SKY/WX    TMP DP  RH WIND       PRES   REMARKS
WILLISTON      SUNNY     57  20  23 SW6       30.07R
MINOT          SUNNY     57  13  17 N7        30.06R
DICKINSON      SUNNY     52  16  24 E10       30.03R
BEACH            N/A     52  14  22 SE10      30.08R
TIOGA            N/A     54  12  19 CALM      30.07S
WATFORD CITY     N/A     55  23  28 VRB6      30.06R
BISMARCK       SUNNY     57  10  15 N13G20    30.06R
GRAND FORKS    SUNNY     55  25  31 N21       30.01S
FARGO          SUNNY     52  25  35 N17G25    30.01S
BUFFALO SD       N/A     51  25  36 NE9G21    29.97R
RAPID CITY     PTSUNNY   46  27  47 NE12G17   30.00R
$$

REGIONAL REPORTS...WYOMING/IDAHO/WASHINGTON

CITY           SKY/WX    TMP DP  RH WIND       PRES   REMARKS
GILLETTE       CLOUDY    38  29  70 NE8       30.02R
SHERIDAN       LGT SNOW  34  33  96 S6        30.06R FOG     WCI  29
BUFFALO WY     LGT SNOW  35  30  82 NW10      30.05R WCI  27
CODY           CLOUDY    37  30  75 N16G23    30.01R WCI  28
YELLOWSTONE LA   N/A     34  21  59 VRB5      29.94R
IDAHO FALLS    CLOUDY    47  29  49 N17G23    29.94R
SALMON         PTSUNNY   54  23  30 N12G21    30.03S
BOISE          PTSUNNY   56  29  35 NW23G30   30.08R
SPOKANE        PTSUNNY   53  33  46 S7        30.15F
$$

REGIONAL REPORTS...ALBERTA

CITY           SKY/WX    TMP DP  RH WIND       PRES   REMARKS
EDMONTON       CLOUDY    46  27  46 E2        30.08S
CALGARY        PTSUNNY   45  23  42 N8        30.07R
LETHBRIDGE     PTSUNNY   46  32  57 W8        30.10S
MILK RIVER       N/A     46  32  57 NW8         N/A
$$

REGIONAL REPORTS...SASKATCHEWAN

CITY           SKY/WX    TMP DP  RH WIND       PRES   REMARKS
SWIFT CURRENT  CLOUDY    46  28  49 W17       30.06S
REGINA         PTSUNNY   59  19  21 S13G18    30.02S
SASKATOON      PTSUNNY   48  28  46 W12G17    30.07R
ROCKGLEN         N/A     52  27  37 S6          N/A
ASSINIBOIA       N/A     48  25  40 N6          N/A
$$




USA.gov is the U.S. government's official web portal to all federal, state and local government web resources and services.